Regional Weather Roundup
Issued by NWS

Home | Current Version | Previous Version | Text Only | Print | Product List | Glossary Off
Versions: 1 2 3 4 5 6 7 8 9 10 11 12 13 14 15 16 17 18 19 20 21 22 23 24 25 26 27 28 29 30 31 32 33 34 35 36 37 38 39 40 41 42 43 44 45 46 47 48 49 50

000
ASUS44 KMEG 280900
RWRTN
TENNESSEE HOURLY STATE WEATHER ROUNDUP
NATIONAL WEATHER SERVICE MEMPHIS TN
400 AM CDT SAT MAR 28 2015

TNZ002-004-019-021-049-052-054-088>092-281000-
WEST TENNESSEE

CITY           SKY/WX    TMP DP  RH WIND       PRES   REMARKS
MEMPHIS INTL   PTCLDY    37  21  52 SE6       30.19R WCI  32
NWS MEMPHIS      N/A     33 N/A N/A MISG        N/A
JACKSON        CLOUDY    30  23  75 CALM      30.18S
DYERSBURG      CLOUDY    34  16  47 CALM      30.21R
UNION CITY     CLEAR     27  23  86 CALM      30.18R
PARIS          CLEAR     21  18  86 CALM      30.17R
LEXINGTON      CLEAR     28  18  64 CALM      30.16R
SAVANNAH       CLEAR     28  23  80 CALM      30.17S
$$

TNZ008-025-027-028-033-062-065-066-281000-
NORTH MIDDLE TENNESSEE

CITY           SKY/WX    TMP DP  RH WIND       PRES   REMARKS
NASHVILLE      CLEAR     30  19  63 N6        30.16S WCI  24
CLARKSVILLE    CLEAR     28  20  71 N3        30.18R
COOKEVILLE     CLEAR     28  21  74 VRB3      30.09S
CROSSVILLE     MOCLDY    28  20  71 NW7G23    30.04S WCI  21
$$

TNZ061-075-076-078-094-096-097-281000-
SOUTH MIDDLE TENNESSEE

CITY           SKY/WX    TMP DP  RH WIND       PRES   REMARKS
FAYETTEVILLE   CLEAR     28  21  74 N5        30.11S WCI  23
TULLAHOMA      CLEAR     27  18  69 N5        30.11F WCI  21
WINCHESTER     CLEAR     28  19  69 N6        30.12R WCI  22
COLUMBIA       CLEAR     28  28 100 CALM      30.13S
SHELBYVILLE    CLEAR     28  21  74 CALM      30.15R
$$

TNZ017-018-042-046-047-281000-
NORTHEAST TENNESSEE

CITY           SKY/WX    TMP DP  RH WIND       PRES   REMARKS
TRI CITIES     CLOUDY    30  18  60 NW13G20   29.98R WCI  20
ELIZABETHTON   CLOUDY    28  16  59 VRB5      29.96S WCI  23
$$

TNZ012-013-036-069-073-074-281000-
CENTRAL EAST TENNESSEE

CITY           SKY/WX    TMP DP  RH WIND       PRES   REMARKS
KNOXVILLE      CLOUDY    33  20  58 N7        30.05S WCI  27
OAK RIDGE      CLOUDY    34  20  56 N6        30.08R WCI  29
GATLINBURG     CLOUDY    30  18  59 CALM      30.05R
$$

TNZ083-085-099-281000-
SOUTHEAST TENNESSEE

CITY           SKY/WX    TMP DP  RH WIND       PRES   REMARKS
CHATTANOOGA    CLEAR     35  19  52 NW15      30.10R WCI  25
$$

SKY/WX REPORTED AS FAIR MEANS FEW OR NO CLOUDS BELOW
12 THOUSAND FEET.




USA.gov is the U.S. government's official web portal to all federal, state and local government web resources and services.